• en France
  • Liste des pays
  • À 7 jours
  • Température de l'eau
  • Carte satellitaire
  • Carte météo
  • Widgets météo
  • user-avatar
    Se connecter

    Météo par heure à Alajuela

    Ce jour, 20 Août, Lundi

    Heure Température Précipitation Vent Pression Humidité
    00:00 +21°C° 0 mm 1 m/s 681 mmHg 86%
    01:00 +21°C° 0 mm 1 m/s 681 mmHg 85%
    02:00 +20°C° 0 mm 1 m/s 680 mmHg 84%
    03:00 +20°C° 0 mm 1 m/s 680 mmHg 83%
    04:00 +20°C° 0 mm 1 m/s 680 mmHg 82%
    05:00 +20°C° 0 mm 1 m/s 680 mmHg 82%
    06:00 +21°C° 0 mm 1 m/s 680 mmHg 82%
    07:00 +22°C° 0 mm 1 m/s 681 mmHg 76%
    08:00 +24°C° 0 mm 1 m/s 682 mmHg 70%
    09:00 +26°C° 0 mm 1 m/s 683 mmHg 64%
    10:00 +27°C° 0,1 mm 1 m/s 682 mmHg 63%
    11:00 +28°C° 0,1 mm 2 m/s 682 mmHg 62%
    12:00 +28°C° 0,1 mm 2 m/s 682 mmHg 61%
    13:00 +27°C° 0,8 mm 2 m/s 682 mmHg 66%
    14:00 +26°C° 0,8 mm 2 m/s 681 mmHg 71%
    15:00 +26°C° 0,8 mm 1 m/s 681 mmHg 77%
    16:00 +24°C° 0,3 mm 1 m/s 681 mmHg 81%
    17:00 +23°C° 0,3 mm 1 m/s 681 mmHg 86%
    18:00 +22°C° 0,3 mm 1 m/s 680 mmHg 91%
    19:00 +22°C° 0 mm 1 m/s 681 mmHg 90%
    20:00 +22°C° 0 mm 1 m/s 681 mmHg 90%
    21:00 +22°C° 0 mm 1 m/s 681 mmHg 90%
    22:00 +21°C° 0 mm 1 m/s 681 mmHg 90%
    23:00 +21°C° 0 mm 1 m/s 681 mmHg 89%

    Demain, 21 Août, Mardi

    Heure Température Précipitation Vent Pression Humidité
    00:00 +21°C° 0 mm 1 m/s 681 mmHg 88%
    01:00 +21°C° 0 mm 1 m/s 681 mmHg 88%
    02:00 +21°C° 0 mm 1 m/s 680 mmHg 87%
    03:00 +20°C° 0 mm 1 m/s 680 mmHg 87%
    04:00 +20°C° 0 mm 1 m/s 680 mmHg 87%
    05:00 +20°C° 0 mm 1 m/s 680 mmHg 87%
    06:00 +21°C° 0 mm 1 m/s 681 mmHg 86%
    07:00 +23°C° 0 mm 1 m/s 681 mmHg 78%
    08:00 +25°C° 0 mm 1 m/s 682 mmHg 70%
    09:00 +27°C° 0 mm 1 m/s 683 mmHg 62%
    10:00 +28°C° 0 mm 2 m/s 683 mmHg 62%
    11:00 +28°C° 0 mm 2 m/s 683 mmHg 61%
    12:00 +28°C° 0 mm 2 m/s 682 mmHg 60%
    13:00 +28°C° 0,2 mm 2 m/s 682 mmHg 64%
    14:00 +27°C° 0,2 mm 2 m/s 681 mmHg 67%
    15:00 +27°C° 0,2 mm 2 m/s 681 mmHg 70%
    16:00 +26°C° 0,2 mm 2 m/s 680 mmHg 77%
    17:00 +24°C° 0,2 mm 1 m/s 680 mmHg 83%
    18:00 +23°C° 0,2 mm 1 m/s 680 mmHg 90%
    19:00 +23°C° 0,1 mm 1 m/s 681 mmHg 90%
    20:00 +22°C° 0,1 mm 1 m/s 681 mmHg 91%
    21:00 +22°C° 0,1 mm 1 m/s 682 mmHg 91%
    22:00 +21°C° 0 mm 1 m/s 682 mmHg 90%
    23:00 +21°C° 0 mm 1 m/s 681 mmHg 89%

    Après-demain, 22 Août, Mercredi

    Heure Température Précipitation Vent Pression Humidité
    00:00 +21°C° 0 mm 1 m/s 681 mmHg 87%
    01:00 +21°C° 0 mm 1 m/s 681 mmHg 87%
    02:00 +21°C° 0 mm 1 m/s 680 mmHg 87%
    03:00 +21°C° 0 mm 1 m/s 680 mmHg 87%
    04:00 +21°C° 0 mm 1 m/s 680 mmHg 87%
    05:00 +21°C° 0 mm 1 m/s 680 mmHg 87%
    06:00 +21°C° 0 mm 1 m/s 680 mmHg 87%
    07:00 +23°C° 0 mm 1 m/s 681 mmHg 80%
    08:00 +25°C° 0 mm 1 m/s 682 mmHg 72%
    09:00 +27°C° 0 mm 2 m/s 683 mmHg 65%
    10:00 +28°C° 0,1 mm 2 m/s 683 mmHg 63%
    11:00 +29°C° 0,1 mm 2 m/s 683 mmHg 61%
    12:00 +29°C° 0,1 mm 2 m/s 683 mmHg 59%
    13:00 +28°C° 0,8 mm 2 m/s 682 mmHg 62%
    14:00 +28°C° 0,8 mm 2 m/s 681 mmHg 65%
    15:00 +27°C° 0,8 mm 2 m/s 680 mmHg 69%
    16:00 +26°C° 0,3 mm 2 m/s 680 mmHg 75%
    17:00 +24°C° 0,3 mm 1 m/s 680 mmHg 82%
    18:00 +23°C° 0,3 mm 1 m/s 680 mmHg 89%
    19:00 +20°C° 0,1 mm 0 m/s 681 mmHg 89%
    20:00 +20°C° 0,1 mm 0 m/s 681 mmHg 90%
    21:00 +20°C° 0,1 mm 0 m/s 682 mmHg 90%
    22:00 +20°C° 0 mm 0 m/s 682 mmHg 89%
    23:00 +20°C° 0 mm 0 m/s 681 mmHg 87%

    23 Août, Jeudi

    Heure Température Précipitation Vent Pression Humidité
    00:00 +19°C° 0 mm 0 m/s 681 mmHg 86%
    01:00 +19°C° 0 mm 0 m/s 681 mmHg 85%
    02:00 +19°C° 0 mm 0 m/s 680 mmHg 84%
    03:00 +19°C° 0 mm 0 m/s 680 mmHg 83%
    04:00 +21°C° 0,1 mm 1 m/s 680 mmHg 83%
    05:00 +21°C° 0,1 mm 1 m/s 681 mmHg 83%
    06:00 +21°C° 0,1 mm 1 m/s 681 mmHg 82%
    07:00 +23°C° 0,1 mm 1 m/s 682 mmHg 76%
    08:00 +25°C° 0,1 mm 1 m/s 682 mmHg 70%
    09:00 +26°C° 0,1 mm 1 m/s 683 mmHg 64%
    10:00 +27°C° 0,4 mm 1 m/s 683 mmHg 65%
    11:00 +27°C° 0,4 mm 1 m/s 683 mmHg 66%
    12:00 +27°C° 0,4 mm 2 m/s 682 mmHg 66%
    13:00 +26°C° 2,3 mm 1 m/s 682 mmHg 73%
    14:00 +25°C° 2,3 mm 1 m/s 681 mmHg 79%
    15:00 +24°C° 2,3 mm 1 m/s 680 mmHg 86%
    16:00 +23°C° 3,1 mm 1 m/s 680 mmHg 88%
    17:00 +22°C° 3,1 mm 1 m/s 680 mmHg 90%
    18:00 +22°C° 3,1 mm 1 m/s 680 mmHg 93%
    19:00 +21°C° 1,4 mm 1 m/s 681 mmHg 92%
    20:00 +21°C° 1,4 mm 1 m/s 681 mmHg 92%
    21:00 +19°C° 1,4 mm 0 m/s 682 mmHg 92%
    22:00 +19°C° 0,7 mm 0 m/s 681 mmHg 91%
    23:00 +19°C° 0,7 mm 0 m/s 681 mmHg 91%

    24 Août, Vendredi

    Heure Température Précipitation Vent Pression Humidité
    00:00 +19°C° 0,7 mm 0 m/s 681 mmHg 91%
    01:00 +19°C° 0,6 mm 0 m/s 680 mmHg 91%
    02:00 +18°C° 0,6 mm 0 m/s 680 mmHg 91%
    03:00 +18°C° 0,6 mm 0 m/s 680 mmHg 91%
    04:00 +18°C° 0,6 mm 0 m/s 680 mmHg 90%
    05:00 +18°C° 0,6 mm 0 m/s 680 mmHg 90%
    06:00 +18°C° 0,6 mm 0 m/s 680 mmHg 89%
    07:00 +19°C° 0,3 mm 0 m/s 681 mmHg 85%
    08:00 +21°C° 0,3 mm 0 m/s 681 mmHg 81%
    09:00 +22°C° 0,3 mm 0 m/s 682 mmHg 76%
    10:00 +25°C° 0,1 mm 1 m/s 682 mmHg 71%
    11:00 +27°C° 0,1 mm 1 m/s 682 mmHg 66%
    12:00 +28°C° 0,1 mm 1 m/s 682 mmHg 61%
    13:00 +27°C° 0,8 mm 1 m/s 681 mmHg 67%
    14:00 +26°C° 0,8 mm 1 m/s 681 mmHg 72%
    15:00 +25°C° 0,8 mm 2 m/s 680 mmHg 77%
    16:00 +24°C° 1,9 mm 1 m/s 680 mmHg 82%
    17:00 +23°C° 1,9 mm 1 m/s 680 mmHg 87%
    18:00 +20°C° 1,9 mm 0 m/s 680 mmHg 91%
    19:00 +20°C° 1,2 mm 0 m/s 681 mmHg 91%
    20:00 +20°C° 1,2 mm 0 m/s 681 mmHg 91%
    21:00 +19°C° 1,2 mm 0 m/s 682 mmHg 91%
    22:00 +19°C° 0,4 mm 0 m/s 681 mmHg 91%
    23:00 +19°C° 0,4 mm 0 m/s 681 mmHg 91%

    25 Août, Samedi

    Heure Température Précipitation Vent Pression Humidité
    00:00 +19°C° 0,4 mm 0 m/s 681 mmHg 90%
    01:00 +19°C° 0,1 mm 0 m/s 680 mmHg 90%
    02:00 +19°C° 0,1 mm 0 m/s 680 mmHg 90%
    03:00 +18°C° 0,1 mm 0 m/s 680 mmHg 90%
    04:00 +19°C° 0,1 mm 0 m/s 680 mmHg 90%
    05:00 +19°C° 0,1 mm 0 m/s 680 mmHg 89%
    06:00 +21°C° 0,1 mm 1 m/s 681 mmHg 89%
    07:00 +22°C° 0,1 mm 1 m/s 681 mmHg 83%
    08:00 +24°C° 0,1 mm 1 m/s 682 mmHg 77%
    09:00 +25°C° 0,1 mm 1 m/s 683 mmHg 71%
    10:00 +26°C° 0,4 mm 1 m/s 682 mmHg 70%
    11:00 +26°C° 0,4 mm 1 m/s 682 mmHg 69%
    12:00 +27°C° 0,4 mm 2 m/s 682 mmHg 69%
    13:00 +26°C° 1,1 mm 2 m/s 681 mmHg 73%
    14:00 +25°C° 1,1 mm 2 m/s 681 mmHg 77%
    15:00 +25°C° 1,1 mm 2 m/s 680 mmHg 81%
    16:00 +24°C° 1,9 mm 1 m/s 680 mmHg 84%
    17:00 +23°C° 1,9 mm 1 m/s 681 mmHg 88%
    18:00 +22°C° 1,9 mm 1 m/s 681 mmHg 91%
    19:00 +22°C° 1,9 mm 1 m/s 681 mmHg 91%
    20:00 +20°C° 1,9 mm 0 m/s 682 mmHg 91%
    21:00 +19°C° 1,9 mm 0 m/s 682 mmHg 92%
    22:00 +19°C° 0,9 mm 0 m/s 682 mmHg 92%
    23:00 +19°C° 0,9 mm 0 m/s 682 mmHg 92%
    Voir plus